Date String (YYYY-MM-DD hh:mm:ss) UTC,Instrument flags,Ambient pressure (hPa),Sample flow (lpm),Bypass flow (lpm),Sample temperature (°C),Ambient temperature (°C),ASC tube jacket temperature (°C),LED temperature (°C),Box temperature (°C),Sample RH (%),Span deviation,Mass concentration (μg/m³),Mass concentration (μg/m³),Mass concentration (μg/m³)
DateTimeUTC,F1_M11,P_M11,Q1_M11,Q2_M11,T1_M11,T2_M11,T3_M11,T4_M11,T5_M11,U1_M11,ZSPAN_M11,X0_M11,X2_M11,X1_M11
2021-08-26 08:00:00,,0830.2,5.00,0.00,29.3,26.5,00.0,38.7,30.8,28.4,0002.2,0022.89,0010.33,0008.85
2021-08-26 08:01:00,,0830.2,5.01,0.00,29.3,26.9,00.0,38.6,30.9,28.4,0002.2,0022.68,0010.24,0008.82
2021-08-26 08:02:00,,0830.3,4.99,0.00,29.3,27.2,00.0,38.6,30.9,28.6,0002.1,0022.35,0010.21,0008.83
2021-08-26 08:03:00,,0830.2,4.99,0.00,29.3,27.5,00.0,38.6,31.0,28.5,0002.0,0021.85,0010.17,0008.82
2021-08-26 08:04:00,,0830.3,5.02,0.00,29.3,27.8,00.0,38.6,31.1,28.4,0002.0,0021.63,0010.19,0008.82
2021-08-26 08:05:00,,0830.2,4.99,0.00,29.4,27.9,00.0,38.6,31.1,28.5,0002.4,0021.48,0010.22,0008.80
2021-08-26 08:06:00,,0830.2,5.01,0.00,29.4,28.1,00.0,38.6,31.1,28.4,0002.5,0021.81,0010.20,0008.78
2021-08-26 08:07:00,,0830.1,5.00,0.00,29.4,28.2,00.0,38.6,31.2,28.6,0002.5,0021.45,0010.18,0008.76
2021-08-26 08:08:00,,0830.1,5.01,0.00,29.4,28.3,00.0,38.6,31.2,28.5,0002.3,0020.60,0010.17,0008.76
2021-08-26 08:09:00,,0830.1,4.99,0.00,29.4,28.4,00.0,38.6,31.2,28.4,0002.0,0021.27,0010.20,0008.77
2021-08-26 08:10:00,,0830.1,4.99,0.00,29.4,28.4,00.0,38.6,31.2,28.4,0001.5,0021.90,0010.24,0008.77
2021-08-26 08:11:00,,0830.1,5.01,0.00,29.5,28.5,00.0,38.6,31.3,28.5,0001.3,0022.53,0010.28,0008.78
2021-08-26 08:12:00,,0830.1,5.01,0.00,29.5,28.5,00.0,38.6,31.3,28.8,0001.1,0022.36,0010.33,0008.80
2021-08-26 08:13:00,,0830.1,4.99,0.00,29.5,28.6,00.0,38.6,31.3,29.1,0000.9,0022.68,0010.32,0008.80
2021-08-26 08:14:00,,0830.1,5.01,0.00,29.5,28.6,00.0,38.6,31.3,29.3,0000.8,0022.41,0010.38,0008.81
2021-08-26 08:15:00,,0830.1,5.00,0.00,29.5,28.6,00.0,38.6,31.3,29.6,0000.9,0021.42,0010.28,0008.79
2021-08-26 08:16:00,,0830.1,5.00,0.00,29.5,28.7,00.0,38.6,31.3,29.5,0000.8,0021.63,0010.27,0008.78
2021-08-26 08:17:00,,0830.0,4.99,0.00,29.5,28.7,00.0,38.6,31.3,29.5,0000.8,0021.71,0010.26,0008.79
2021-08-26 08:18:00,,0830.0,5.01,0.00,29.5,28.7,00.0,38.6,31.3,29.7,0000.9,0022.26,0010.22,0008.77
2021-08-26 08:19:00,,0829.9,4.98,0.00,29.6,28.7,00.0,38.7,31.4,29.7,0001.1,0022.54,0010.21,0008.75
2021-08-26 08:20:00,,0829.9,5.00,0.00,29.6,28.8,00.0,38.7,31.4,29.7,0001.0,0021.58,0010.19,0008.75
2021-08-26 08:21:00,,0829.8,5.00,0.00,29.6,28.8,00.0,38.7,31.4,29.7,0001.2,0021.31,0010.20,0008.73
2021-08-26 08:22:00,,0829.8,4.99,0.00,29.6,28.8,00.0,38.7,31.4,29.5,0001.4,0020.85,0010.19,0008.71
2021-08-26 08:23:00,,0829.8,5.01,0.00,29.6,28.8,00.0,38.7,31.4,29.5,0001.8,0020.68,0010.17,0008.70
2021-08-26 08:24:00,,0829.8,5.00,0.00,29.6,28.8,00.0,38.7,31.4,29.4,0001.9,0021.11,0010.22,0008.69
2021-08-26 08:25:00,,0829.8,4.99,0.00,29.6,28.8,00.0,38.7,31.4,29.3,0002.0,0020.85,0010.15,0008.68
2021-08-26 08:26:00,,0829.8,5.00,0.00,29.6,28.8,00.0,38.7,31.4,29.4,0002.2,0021.71,0010.19,0008.67
2021-08-26 08:27:00,,0829.7,5.00,0.00,29.6,28.8,00.0,38.7,31.4,29.1,0002.2,0021.94,0010.19,0008.69
2021-08-26 08:28:00,,0829.6,4.99,0.00,29.6,28.9,00.0,38.8,31.4,28.9,0002.1,0021.20,0010.20,0008.68
2021-08-26 08:29:00,,0829.6,5.00,0.00,29.6,28.9,00.0,38.8,31.4,28.3,0002.0,0020.96,0010.21,0008.69
2021-08-26 08:30:00,,0829.5,5.00,0.00,29.6,28.9,00.0,38.8,31.4,28.1,0001.8,0020.20,0010.22,0008.70
2021-08-26 08:31:00,,0829.6,5.01,0.00,29.6,28.9,00.0,38.8,31.4,27.9,0001.5,0019.86,0010.20,0008.69
2021-08-26 08:32:00,,0829.6,4.99,0.00,29.7,28.9,00.0,38.8,31.4,27.8,0001.4,0019.82,0010.17,0008.71
2021-08-26 08:33:00,,0829.6,4.99,0.00,29.7,28.9,00.0,38.8,31.4,28.0,0001.3,0019.64,0010.15,0008.71
2021-08-26 08:34:00,,0829.6,5.00,0.00,29.7,28.9,00.0,38.8,31.4,28.0,0001.2,0019.85,0010.19,0008.72
2021-08-26 08:35:00,,0829.6,5.00,0.00,29.7,29.0,00.0,38.8,31.4,27.9,0001.3,0019.31,0010.13,0008.72
2021-08-26 08:36:00,,0829.6,5.01,0.00,29.7,29.0,00.0,38.8,31.5,28.5,0001.3,0019.52,0010.16,0008.72
2021-08-26 08:37:00,,0829.7,5.00,0.00,29.7,28.8,00.0,38.8,31.4,27.9,0001.1,0018.94,0010.16,0008.73
2021-08-26 08:38:00,,0829.8,5.00,0.00,29.6,27.1,00.0,38.8,31.0,27.6,0001.1,0018.28,0010.16,0008.72
2021-08-26 08:39:00,,0829.7,4.99,0.00,29.5,26.1,00.0,38.8,30.8,27.8,0001.1,0018.38,0010.20,0008.72
2021-08-26 08:40:00,,0829.7,5.01,0.00,29.4,26.2,00.0,38.7,30.8,28.1,0001.1,0018.58,0010.20,0008.71
2021-08-26 08:41:00,,0829.7,5.00,0.00,29.4,26.6,00.0,38.7,30.8,28.4,0001.2,0019.27,0010.23,0008.69
2021-08-26 08:42:00,,0829.8,4.98,0.00,29.4,27.0,00.0,38.6,30.9,28.3,0001.6,0019.95,0010.20,0008.66
2021-08-26 08:43:00,,0829.7,5.01,0.00,29.4,27.4,00.0,38.6,31.0,28.2,0001.9,0020.28,0010.21,0008.64
2021-08-26 08:44:00,,0829.7,4.99,0.00,29.4,27.6,00.0,38.6,31.0,28.4,0001.8,0020.66,0010.18,0008.62
2021-08-26 08:45:00,,0829.6,5.01,0.00,29.4,27.9,00.0,38.6,31.1,28.5,0001.7,0021.73,0010.15,0008.62
2021-08-26 08:46:00,,0829.8,5.00,0.00,29.4,28.1,00.0,38.6,31.1,28.5,0001.9,0021.97,0010.13,0008.61
2021-08-26 08:47:00,,0829.9,4.99,0.00,29.4,28.2,00.0,38.6,31.2,28.5,0001.8,0022.16,0010.10,0008.61
2021-08-26 08:48:00,,0829.6,5.00,0.00,29.5,28.4,00.0,38.6,31.2,28.7,0001.7,0022.05,0010.11,0008.62
2021-08-26 08:49:00,,0829.5,5.01,0.00,29.5,28.5,00.0,38.6,31.3,28.5,0001.7,0022.50,0010.11,0008.61
2021-08-26 08:50:00,,0829.5,5.00,0.00,29.5,28.6,00.0,38.6,31.3,28.3,0001.9,0023.24,0010.10,0008.62
2021-08-26 08:51:00,,0829.5,4.99,0.00,29.6,28.6,00.0,38.6,31.4,28.3,0002.0,0022.90,0010.12,0008.63
2021-08-26 08:52:00,,0829.5,4.99,0.00,29.6,28.7,00.0,38.6,31.4,28.3,0002.0,0022.20,0010.09,0008.64
2021-08-26 08:53:00,,0829.6,5.01,0.00,29.6,28.8,00.0,38.6,31.4,28.4,0001.8,0021.99,0010.14,0008.66
2021-08-26 08:54:00,,0829.6,5.00,0.00,29.7,28.8,00.0,38.7,31.5,28.4,0001.6,0021.79,0010.14,0008.68
2021-08-26 08:55:00,,0829.6,5.00,0.00,29.7,28.9,00.0,38.7,31.5,28.4,0001.4,0021.32,0010.15,0008.70
2021-08-26 08:56:00,,0829.6,5.00,0.00,29.7,28.9,00.0,38.7,31.5,28.3,0001.0,0020.33,0010.15,0008.70
2021-08-26 08:57:00,,0829.7,5.00,0.00,29.7,29.0,00.0,38.7,31.6,27.4,0001.0,0020.46,0010.18,0008.71
2021-08-26 08:58:00,,0829.6,5.00,0.00,29.8,29.0,00.0,38.8,31.6,27.1,0001.1,0020.95,0010.28,0008.73
2021-08-26 08:59:00,,0829.9,5.01,0.00,29.8,29.1,00.0,38.8,31.7,27.0,0001.2,0021.44,0010.31,0008.74
